STARLINK-11516 [DTC] (62522 NORAD) Tracking and Keplerian Element Data

This shows tracking and keplerian element data for the satellite.

Feedback or suggestion? Click here.




ElementValue
Catalog62522
NameSTARLINK-11516 [DTC]
Epoch Orbit514
Epoch Day34.83335648
Epoch Year2025
RAAN315.5059
Inclination43.0003
Eccentricity0.0001932
Argument of Perigee257.0806
Mean Anonmoly52.9186
Mean Motion15.77873715
Decay Rate-0.00021655
L11 62522U 25004M 25034.83335648 -.00021655 00000+0 -12178-3 0 9994
L22 62522 43.0003 315.5059 0001932 257.0806 52.9186 15.77873715 5142



Live tracking and technical data element details for STARLINK-11516 [DTC] (NORAD 62522). STARLINK-11516 [DTC] can be tracked NOW for your location showing map with azimuth and elevation plus other details from your city location.







IsCatalogInMostPopularTable: catalog: 62522, numindb: 15
Update: records affected: 1



GetName: 62522 STARLINK-11516 [DTC]

Hit Count: updated at: Sun, 18 May 2025 22:13:53 GMT